User: anonymous   Login
Location: Unspecified
(0.0000°N, 0.0000°E)
Time: 00:12:43
(UTC+00:00)
Language:

Intelsat II F-4 - Orbit

View from above orbital plane
View from above orbital plane
View from above satellite
View from above satellite

Ground track
Ground track

The orbit data is extracted from the following two-line orbital elements,

1  2969U 67094A   18265.57859575 +.00000101 +00000-0 +00000-0 0  9997
2  2969 002.8711 294.4993 0014394 247.6375 242.2874 01.00351004086997
Epoch (UTC): 22 September 2018 13:53:10
Eccentricity: 0.0014394
inclination: 2.8711°
perigee height: 35703 km
apogee height: 35824 km
right ascension of ascending node: 294.4993°
argument of perigee: 247.6375°
revolutions per day: 1.00351004
mean anomaly at epoch: 242.2874°
orbit number at epoch: 8699

The dashed part of the orbit path shows where the satellite is in the earth's shadow,  

DLR